This demonstration page uses our WeatherBlox Daily Observations layout. Learn more.

Left ArrowRight Arrow

38.80484, -77.04692

Hourly Observations for August 10, 2021

Temp ( °F °C ) Dew Point ( °F °C ) Humidity (%) Winds ( mph kmh ) Pressure ( in mb ) Visibility ( mi km ) Precip ( " mm )
12:52 am 00:52 Partly Cloudy 79 26.1 73 22.8 82 82 S 8 13 30.13 1020 10 16 N/A
1:52 am 01:52 Partly Cloudy 79 26.1 73 22.8 82 82 S 10 17 30.12 1020 10 16 N/A
2:52 am 02:52 Partly Cloudy 78 25.6 73 22.8 85 85 S 9 15 30.11 1020 10 16 N/A
3:52 am 03:52 Partly Cloudy 78 25.6 73 22.8 85 85 S 13 20 30.11 1020 10 16 N/A
4:52 am 04:52 Partly Cloudy 77 25 72 22.2 85 85 S 9 15 30.11 1020 10 16 N/A
5:52 am 05:52 Partly Cloudy 77 25 72 22.2 85 85 S 7 11 30.12 1020 10 16 N/A
6:52 am 06:52 Mostly Sunny 77 25 72 22.2 85 85 S 8 13 30.13 1020 10 16 N/A
7:52 am 07:52 Mostly Cloudy 78 25.6 72 22.2 82 82 S 7 11 30.14 1021 10 16 N/A
8:52 am 08:52 Mostly Cloudy 79 26.1 72 22.2 79 79 S 7 11 30.13 1020 10 16 N/A
9:52 am 09:52 Mostly Cloudy 82 27.8 73 22.8 74 74 S 10 17 30.14 1021 10 16 N/A
10:52 am 10:52 Mostly Sunny 85 29.4 73 22.8 68 68 S 10 17 30.13 1020 10 16 N/A
11:52 am 11:52 Mostly Sunny 88 31.1 73 22.8 61 61 S 10 17 30.13 1020 10 16 N/A
12:52 pm 12:52 Mostly Sunny 90 32.2 73 22.8 58 58 S 13 20 30.11 1020 10 16 N/A
1:52 pm 13:52 Mostly Sunny 93 33.9 72 22.2 50 50 S 12 19 30.08 1019 10 16 N/A
2:52 pm 14:52 Mostly Sunny 92 33.3 75 23.9 58 58 S 13 20 30.05 1018 10 16 N/A
3:52 pm 15:52 Mostly Sunny 93 33.9 74 23.3 54 54 S 15 24 30.04 1017 10 16 N/A
4:52 pm 16:52 Mostly Cloudy 92 33.3 70 21.1 49 49 S 15 24 30.04 1017 10 16 N/A
5:16 pm 17:16 Partly Cloudy with Nearby Thunderstorms 90 32.2 73 22.8 58 58 S 12 19 30.04 1017 10 16 N/A
5:23 pm 17:23 Mostly Cloudy with Thunderstorms 91 32.8 72 22.2 54 54 S 16 26 30.05 1017 10 16 N/A
5:38 pm 17:38 Windy with Storms Likely 85 29.4 65 18.3 51 51 W 28 44 30.06 1018 10 16 0.00 0.00
5:52 pm 17:52 Windy with Storms Likely 82 27.8 65 18.3 56 56 W 24 39 30.07 1018 10 16 0.00 0.00
6:08 pm 18:08 Cloudy with Strong Thunderstorms 75 23.9 68 20 79 79 WNW 22 35 30.10 1019 2 3 0.10 2.54
6:21 pm 18:21 Cloudy with Strong Thunderstorms 73 22.8 66 18.9 79 79 N 6 9 30.09 1019 2 3 0.54 13.72
6:24 pm 18:24 Cloudy with Strong Thunderstorms 73 22.8 66 18.9 79 79 N 7 11 30.09 1019 4 6 0.57 14.48
6:41 pm 18:41 Cloudy with Thunderstorms 75 23.9 68 20 79 79 NNW 9 15 30.07 1018 10 16 0.63 16.00
6:52 pm 18:52 Mostly Cloudy with Thunderstorms 76 24.4 69 20.6 79 79 NNW 12 19 30.06 1018 9 14 0.63 16.00
7:22 pm 19:22 Mostly Cloudy with Nearby Thunderstorms 76 24.4 70 21.1 82 82 N N/A 30.04 1017 10 16 0.02 0.51
7:44 pm 19:44 Mostly Cloudy 76 24.4 69 20.6 79 79 NW 3 6 30.03 1017 10 16 0.02 0.51
7:52 pm 19:52 Mostly Cloudy 76 24.4 70 21.1 82 82 N N/A 30.02 1017 10 16 0.02 0.51
8:52 pm 20:52 Mostly Cloudy with Light Rain 77 25 72 22.2 85 85 SE 6 9 30.05 1018 10 16 0.00 0.00
9:52 pm 21:52 Mostly Cloudy 79 26.1 72 22.2 79 79 N N/A 30.09 1019 10 16 0.00 0.00
10:52 pm 22:52 Mostly Cloudy 78 25.6 73 22.8 85 85 ENE 5 7 30.09 1019 10 16 N/A
11:52 pm 23:52 Cloudy 78 25.6 73 22.8 85 85 N N/A 30.10 1019 10 16 N/A

Powered by AerisWeather